CW7992 Weather Reports


time (UTC)temp
C
wind
direction
speed
KPH
gust
KPH
rain 1hr
cm
rain 24hr
cm
rain mn
cm
humidity
%
barometer
mb
20260507160111 13 302 3.2 3.2 0.00 0.00 0.00 64 17.6
20260507155111 13 308 3.2 9.7 0.00 0.00 0.00 64 17.6
20260507154111 13 300 3.2 6.4 0.00 0.00 0.00 65 17.6
20260507153111 13 325 4.8 12.9 0.00 0.00 0.00 64 17.5
20260507152111 13 324 4.8 12.9 0.00 0.00 0.00 65 17.5
20260507151111 13 304 3.2 12.9 0.00 0.00 0.00 63 17.5
20260507150111 13 299 1.6 3.2 0.00 0.00 0.00 64 17.5
20260507145111 13 303 3.2 8.0 0.00 0.00 0.00 64 17.5
20260507144112 14 151 4.8 8.0 0.00 0.00 0.00 54 17.4
20260507143111 14 97 0.0 1.6 0.00 0.00 0.00 56 17.4
20260507142111 14 117 1.6 6.4 0.00 0.00 0.00 56 17.3
20260507141111 14 47 0.0 3.2 0.00 0.00 0.00 56 17.2
20260507140112 14 22 0.0 3.2 0.00 0.00 0.00 57 17.3
20260507135111 14 65 1.6 3.2 0.00 0.00 0.00 59 17.3
20260507134112 14 67 0.0 3.2 0.00 0.00 0.00 56 17.3
20260507133111 14 45 1.6 3.2 0.00 0.00 0.00 59 17.2
20260507132111 14 32 0.0 6.4 0.00 0.00 0.00 56 17.2
20260507131111 14 86 0.0 1.6 0.00 0.00 0.00 56 17.1
20260507130111 14 52 0.0 3.2 0.00 0.00 0.00 53 17.1
20260507125111 15 46 3.2 8.0 0.00 0.00 0.00 53 17.0
20260507124111 14 150 1.6 3.2 0.00 0.00 0.00 54 17.0
20260507123112 14 26 1.6 3.2 0.00 0.00 0.00 54 16.9
20260507122111 15 80 0.0 3.2 0.00 0.00 0.00 55 16.9
20260507121112 15 175 0.0 8.0 0.00 0.00 0.00 56 16.8
20260507120111 15 142 0.0 3.2 0.00 0.00 0.00 54 16.8
20260507115112 16 190 1.6 8.0 0.00 0.00 0.00 45 16.7
20260507114111 16 182 3.2 9.7 0.00 0.00 0.00 47 16.7
20260507113111 17 110 3.2 9.7 0.00 0.00 0.00 44 16.7
20260507112111 16 67 1.6 6.4 0.00 0.00 0.00 46 16.7
20260507111111 16 77 0.0 8.0 0.00 0.00 0.00 47 16.7
20260507110111 16 211 1.6 11.3 0.00 0.00 0.00 45 16.8
20260507105111 16 171 1.6 3.2 0.00 0.00 0.00 50 16.8
20260507103111 15 32 8.0 11.3 0.00 0.00 0.00 51 16.8
20260507102111 16 63 3.2 11.3 0.00 0.00 0.00 53 16.8
20260507101111 16 217 0.0 0.0 0.00 0.00 0.00 48 16.8
20260507100111 16 169 3.2 8.0 0.00 0.00 0.00 51 16.7
20260507095111 15 317 3.2 8.0 0.00 0.00 0.00 49 16.7
20260507092111 15 19 1.6 3.2 0.00 0.00 0.00 46 16.6
20260507091111 14 210 0.0 1.6 0.00 0.00 0.00 53 16.5
20260507090111 14 119 0.0 9.7 0.00 0.00 0.00 57 16.6
20260507083111 13 58 1.6 3.2 0.00 0.00 0.00 63 16.4
20260507082111 13 56 0.0 8.0 0.00 0.00 0.00 63 16.3
20260507081111 12 92 1.6 8.0 0.00 0.00 0.00 64 16.2
20260507075111 11 202 0.0 0.0 0.00 0.00 0.00 69 16.2
20260507074111 11 169 0.0 0.0 0.00 0.00 0.00 73 16.1
20260507073111 11 189 0.0 0.0 0.00 0.00 0.00 75 16.0
20260507072111 10 41 0.0 3.2 0.00 0.00 0.00 78 16.1
20260507071111 10 224 0.0 6.4 0.00 0.00 0.00 84 16.0
20260507070111 10 54 0.0 3.2 0.00 0.00 0.00 85 16.1
20260507065111 8 37 3.2 3.2 0.00 0.00 0.00 89 16.0
20260507064111 8 46 1.6 3.2 0.00 0.00 0.00 91 15.9
20260507063111 8 37 0.0 0.0 0.00 0.00 0.00 92 15.9
20260507062111 7 30 0.0 3.2 0.00 0.00 0.00 93 15.8
20260507061111 7 32 0.0 6.4 0.00 0.00 0.00 93 15.7
20260507060111 6 40 3.2 8.0 0.00 0.00 0.00 93 15.6
20260507055111 6 46 3.2 6.4 0.00 0.00 0.00 94 15.6
20260507054111 5 42 3.2 6.4 0.00 0.00 0.00 94 15.6
20260507053111 5 31 3.2 6.4 0.00 0.00 0.00 94 15.5
20260507052111 5 38 3.2 6.4 0.00 0.00 0.00 94 15.5
20260507051111 4 28 0.0 1.6 0.00 0.00 0.00 93 15.4
20260507050111 3 28 0.0 0.0 0.00 0.00 0.00 93 15.3
20260507045111 2 28 0.0 0.0 0.00 0.00 0.00 93 15.2
20260507044111 2 28 0.0 0.0 0.00 0.00 0.00 93 15.1
20260507043111 2 28 0.0 0.0 0.00 0.00 0.00 93 14.9
20260507035111 2 30 0.0 0.0 0.00 0.00 0.00 92 14.6
20260507034111 2 30 0.0 0.0 0.00 0.00 0.00 92 14.5
20260507033111 2 30 0.0 0.0 0.00 0.00 0.00 92 14.4
20260507032111 2 30 0.0 0.0 0.00 0.00 0.00 92 14.4
20260507030111 2 30 0.0 1.6 0.00 0.00 0.00 92 14.3
20260507025111 2 30 0.0 0.0 0.00 0.00 0.00 92 14.2
20260507022111 3 30 0.0 3.2 0.00 0.00 0.00 92 14.0
20260507021111 3 15 0.0 3.2 0.00 0.00 0.00 92 14.0
20260507020111 3 52 0.0 0.0 0.00 0.00 0.00 91 13.8
20260507015111 3 52 0.0 0.0 0.00 0.00 0.00 91 13.7
20260507013111 3 52 0.0 0.0 0.00 0.00 0.00 91 13.5
20260507012111 3 52 0.0 0.0 0.00 0.00 0.00 91 13.4
20260507011111 4 52 0.0 0.0 0.00 0.00 0.00 91 13.4
20260507010111 4 52 0.0 0.0 0.00 0.00 0.00 91 13.4
20260507005111 4 52 0.0 0.0 0.00 0.00 0.00 91 13.3
20260507004111 4 52 0.0 0.0 0.00 0.00 0.00 91 13.3
20260507003111 4 52 0.0 0.0 0.00 0.00 0.00 90 13.3
20260507001111 5 52 0.0 0.0 0.00 0.00 0.00 90 13.3
20260507000111 5 52 0.0 0.0 0.00 0.00 0.00 90 13.3
20260506235111 5 52 0.0 0.0 0.00 0.00 0.00 90 13.3
20260506234111 5 52 0.0 0.0 0.00 0.00 0.00 89 13.3
20260506233111 5 52 0.0 0.0 0.00 0.00 0.00 89 13.3
20260506232111 5 52 0.0 0.0 0.00 0.00 0.00 89 13.2
20260506231111 5 52 0.0 0.0 0.00 0.00 0.00 89 13.2
20260506230111 5 52 0.0 0.0 0.00 0.00 0.00 88 13.2
20260506225111 5 52 0.0 0.0 0.00 0.00 0.00 88 13.1
20260506224111 5 52 0.0 1.6 0.00 0.00 0.00 88 13.0
20260506223111 6 52 0.0 1.6 0.00 0.00 0.00 88 13.0
20260506222111 5 53 0.0 0.0 0.00 0.00 0.00 87 13.0
20260506220111 6 53 0.0 0.0 0.00 0.00 0.00 86 12.9
20260506215111 6 53 0.0 0.0 0.00 0.00 0.00 86 12.8
20260506214111 6 53 0.0 0.0 0.00 0.00 0.00 85 12.6
20260506211111 7 53 0.0 0.0 0.00 0.00 0.00 82 12.4
20260506210111 7 53 0.0 0.0 0.00 0.00 0.00 81 12.3
20260506205111 7 53 0.0 0.0 0.00 0.00 0.00 80 12.3
20260506204111 7 53 0.0 0.0 0.00 0.00 0.00 79 12.2
20260506203111 8 53 0.0 0.0 0.00 0.00 0.00 78 12.1
20260506202111 8 53 0.0 1.6 0.00 0.00 0.00 76 12.0
20260506201111 8 59 0.0 1.6 0.00 0.00 0.00 76 12.0
20260506200111 8 59 0.0 0.0 0.00 0.00 0.00 75 12.0
20260506195111 9 59 0.0 3.2 0.00 0.00 0.00 74 11.9
20260506194111 9 59 1.6 1.6 0.00 0.00 0.00 74 11.8
20260506191111 10 59 0.0 0.0 0.00 0.00 0.00 73 11.4
20260506190111 10 59 0.0 0.0 0.00 0.00 0.00 72 11.3
20260506185111 11 59 0.0 0.0 0.00 0.00 0.00 70 11.3
20260506183111 11 78 1.6 3.2 0.00 0.00 0.00 65 11.0
20260506182111 12 35 3.2 3.2 0.00 0.00 0.00 63 10.9
20260506180111 12 30 3.2 9.7 0.00 0.00 0.00 63 10.7
20260506175111 12 5 1.6 3.2 0.00 0.00 0.00 62 10.7
20260506174111 12 27 4.8 9.7 0.00 0.00 0.00 57 10.6
20260506172111 12 37 4.8 8.0 0.00 0.00 0.00 57 10.5
20260506171111 12 53 3.2 9.7 0.00 0.00 0.00 56 10.4
20260506170111 13 37 3.2 3.2 0.00 0.00 0.00 56 10.4
20260506164111 13 53 4.8 8.0 0.00 0.00 0.00 53 10.3
20260506161111 14 42 3.2 11.3 0.00 0.00 0.00 53 10.3